When you browse on this site, cookies collect data to enhance your experience and personalize the content and advertising you see.
Visit our Privacy Policy to learn more. By continuing to use the site, you agree to this use of cookies and data.
  • In Österreich
  • Länderverzeichnis
  • Für 7 Tage
  • Wassertemperatur
  • Wetterkarte
  • News
  • Widgets
  • user-avatar
    Anmelden

    Stündliche Wetter Zacualtipán

    Heute, 15 November, Freitag

    Zeit Temperatur Niederschläge Wind Luftdruck Luftfeuchtigkeit
    00:00 +12°C° 0.2 mm 1 m/S 620 mmHg 98%
    01:00 +11°C° 0.2 mm 1 m/S 619 mmHg 98%
    02:00 +10°C° 0.2 mm 1 m/S 619 mmHg 97%
    03:00 +10°C° 0.1 mm 1 m/S 619 mmHg 97%
    04:00 +10°C° 0.1 mm 1 m/S 619 mmHg 97%
    05:00 +10°C° 0.1 mm 1 m/S 619 mmHg 97%
    06:00 +9°C° 0.1 mm 1 m/S 620 mmHg 97%
    07:00 +9°C° 0.1 mm 1 m/S 620 mmHg 96%
    08:00 +9°C° 0.1 mm 1 m/S 620 mmHg 96%
    09:00 +9°C° 0 mm 1 m/S 620 mmHg 94%
    10:00 +10°C° 0 mm 1 m/S 620 mmHg 92%
    11:00 +9°C° 0 mm 2 m/S 620 mmHg 90%
    12:00 +9°C° 0 mm 2 m/S 620 mmHg 88%
    13:00 +10°C° 0 mm 2 m/S 619 mmHg 86%
    14:00 +10°C° 0 mm 2 m/S 619 mmHg 85%
    15:00 +10°C° 0 mm 1 m/S 619 mmHg 88%
    16:00 +10°C° 0 mm 1 m/S 619 mmHg 91%
    17:00 +9°C° 0 mm 1 m/S 619 mmHg 94%
    18:00 +9°C° 0 mm 1 m/S 619 mmHg 94%
    19:00 +9°C° 0 mm 1 m/S 619 mmHg 94%
    20:00 +8°C° 0 mm 0 m/S 620 mmHg 93%
    21:00 +7°C° 0 mm 0 m/S 619 mmHg 93%
    22:00 +7°C° 0 mm 0 m/S 619 mmHg 92%
    23:00 +7°C° 0 mm 0 m/S 619 mmHg 91%

    Morgen, 16 November, Samstag

    Zeit Temperatur Niederschläge Wind Luftdruck Luftfeuchtigkeit
    00:00 +7°C° 0 mm 0 m/S 618 mmHg 90%
    01:00 +7°C° 0 mm 0 m/S 618 mmHg 89%
    02:00 +7°C° 0 mm 0 m/S 618 mmHg 89%
    03:00 +7°C° 0 mm 0 m/S 617 mmHg 89%
    04:00 +7°C° 0 mm 0 m/S 617 mmHg 90%
    05:00 +7°C° 0 mm 0 m/S 617 mmHg 91%
    06:00 +8°C° 0 mm 0 m/S 618 mmHg 85%
    07:00 +10°C° 0 mm 0 m/S 619 mmHg 80%
    08:00 +12°C° 0 mm 1 m/S 620 mmHg 75%
    09:00 +14°C° 0 mm 1 m/S 620 mmHg 73%
    10:00 +15°C° 0 mm 1 m/S 620 mmHg 71%
    11:00 +16°C° 0 mm 2 m/S 619 mmHg 69%
    12:00 +15°C° 0 mm 2 m/S 619 mmHg 72%
    13:00 +15°C° 0 mm 2 m/S 618 mmHg 76%
    14:00 +15°C° 0 mm 2 m/S 617 mmHg 79%
    15:00 +14°C° 0 mm 2 m/S 617 mmHg 84%
    16:00 +13°C° 0 mm 1 m/S 617 mmHg 88%
    17:00 +12°C° 0 mm 1 m/S 617 mmHg 93%
    18:00 +12°C° 0 mm 1 m/S 617 mmHg 93%
    19:00 +11°C° 0 mm 1 m/S 617 mmHg 94%
    20:00 +10°C° 0 mm 0 m/S 617 mmHg 94%
    21:00 +10°C° 0 mm 0 m/S 617 mmHg 94%
    22:00 +10°C° 0 mm 0 m/S 617 mmHg 94%
    23:00 +9°C° 0 mm 0 m/S 616 mmHg 94%

    übermorgen, 17 November, Sonntag

    Zeit Temperatur Niederschläge Wind Luftdruck Luftfeuchtigkeit
    00:00 +9°C° 0 mm 0 m/S 616 mmHg 94%
    01:00 +9°C° 0 mm 0 m/S 615 mmHg 94%
    02:00 +9°C° 0 mm 0 m/S 615 mmHg 94%
    03:00 +9°C° 0 mm 0 m/S 615 mmHg 93%
    04:00 +9°C° 0 mm 0 m/S 615 mmHg 92%
    05:00 +9°C° 0 mm 0 m/S 615 mmHg 91%
    06:00 +11°C° 0 mm 0 m/S 616 mmHg 85%
    07:00 +13°C° 0 mm 0 m/S 617 mmHg 79%
    08:00 +15°C° 0 mm 0 m/S 618 mmHg 73%
    09:00 +18°C° 0 mm 1 m/S 618 mmHg 69%
    10:00 +19°C° 0 mm 1 m/S 618 mmHg 66%
    11:00 +19°C° 0 mm 2 m/S 618 mmHg 62%
    12:00 +19°C° 0 mm 2 m/S 618 mmHg 65%
    13:00 +19°C° 0 mm 2 m/S 617 mmHg 68%
    14:00 +19°C° 0 mm 2 m/S 616 mmHg 71%
    15:00 +17°C° 0.1 mm 2 m/S 616 mmHg 79%
    16:00 +16°C° 0.1 mm 1 m/S 616 mmHg 87%
    17:00 +14°C° 0.1 mm 1 m/S 615 mmHg 95%
    18:00 +14°C° 0 mm 1 m/S 616 mmHg 95%
    19:00 +13°C° 0 mm 0 m/S 616 mmHg 94%
    20:00 +13°C° 0 mm 0 m/S 617 mmHg 94%
    21:00 +13°C° 0 mm 0 m/S 617 mmHg 92%
    22:00 +13°C° 0 mm 0 m/S 617 mmHg 90%
    23:00 +13°C° 0 mm 0 m/S 617 mmHg 89%

    18 November, Montag

    Zeit Temperatur Niederschläge Wind Luftdruck Luftfeuchtigkeit
    00:00 +13°C° 0 mm 0 m/S 616 mmHg 88%
    01:00 +12°C° 0 mm 0 m/S 616 mmHg 87%
    02:00 +12°C° 0 mm 0 m/S 615 mmHg 87%
    03:00 +12°C° 0 mm 0 m/S 616 mmHg 85%
    04:00 +12°C° 0 mm 0 m/S 616 mmHg 84%
    05:00 +13°C° 0 mm 0 m/S 616 mmHg 83%
    06:00 +14°C° 0 mm 0 m/S 617 mmHg 79%
    07:00 +15°C° 0 mm 0 m/S 617 mmHg 75%
    08:00 +16°C° 0 mm 0 m/S 618 mmHg 71%
    09:00 +19°C° 0 mm 1 m/S 618 mmHg 68%
    10:00 +20°C° 0 mm 1 m/S 618 mmHg 66%
    11:00 +20°C° 0 mm 2 m/S 618 mmHg 63%
    12:00 +19°C° 0 mm 2 m/S 617 mmHg 69%
    13:00 +18°C° 0 mm 2 m/S 616 mmHg 75%
    14:00 +18°C° 0 mm 2 m/S 615 mmHg 81%
    15:00 +17°C° 0.1 mm 2 m/S 615 mmHg 85%
    16:00 +16°C° 0.1 mm 1 m/S 615 mmHg 90%
    17:00 +15°C° 0.1 mm 1 m/S 615 mmHg 94%
    18:00 +15°C° 0 mm 1 m/S 616 mmHg 93%
    19:00 +13°C° 0 mm 0 m/S 616 mmHg 93%
    20:00 +13°C° 0 mm 0 m/S 616 mmHg 92%
    21:00 +13°C° 0 mm 0 m/S 616 mmHg 93%
    22:00 +13°C° 0 mm 0 m/S 616 mmHg 93%
    23:00 +13°C° 0 mm 0 m/S 616 mmHg 93%

    19 November, Dienstag

    Zeit Temperatur Niederschläge Wind Luftdruck Luftfeuchtigkeit
    00:00 +13°C° 0 mm 0 m/S 616 mmHg 92%
    01:00 +13°C° 0 mm 0 m/S 616 mmHg 92%
    02:00 +13°C° 0 mm 0 m/S 616 mmHg 92%
    03:00 +12°C° 0 mm 0 m/S 616 mmHg 93%
    04:00 +12°C° 0 mm 0 m/S 616 mmHg 95%
    05:00 +12°C° 0 mm 0 m/S 616 mmHg 96%
    06:00 +12°C° 0 mm 0 m/S 616 mmHg 94%
    07:00 +13°C° 0 mm 0 m/S 617 mmHg 92%
    08:00 +13°C° 0 mm 0 m/S 617 mmHg 90%
    09:00 +15°C° 0 mm 1 m/S 617 mmHg 86%
    10:00 +16°C° 0 mm 1 m/S 617 mmHg 82%
    11:00 +18°C° 0 mm 1 m/S 618 mmHg 77%
    12:00 +18°C° 0 mm 1 m/S 617 mmHg 78%
    13:00 +17°C° 0 mm 2 m/S 616 mmHg 79%
    14:00 +17°C° 0 mm 2 m/S 616 mmHg 79%
    15:00 +18°C° 0.1 mm 1 m/S 616 mmHg 84%
    16:00 +16°C° 0.1 mm 1 m/S 616 mmHg 89%
    17:00 +15°C° 0.1 mm 1 m/S 616 mmHg 93%
    18:00 +15°C° 0.1 mm 1 m/S 616 mmHg 94%
    19:00 +14°C° 0.1 mm 0 m/S 617 mmHg 95%
    20:00 +14°C° 0.1 mm 0 m/S 617 mmHg 96%
    21:00 +13°C° 0 mm 0 m/S 617 mmHg 96%
    22:00 +13°C° 0 mm 0 m/S 616 mmHg 96%
    23:00 +12°C° 0 mm 0 m/S 616 mmHg 96%

    20 November, Mittwoch

    Zeit Temperatur Niederschläge Wind Luftdruck Luftfeuchtigkeit
    00:00 +12°C° 0 mm 0 m/S 616 mmHg 96%
    01:00 +12°C° 0 mm 0 m/S 616 mmHg 95%
    02:00 +12°C° 0 mm 0 m/S 615 mmHg 94%
    03:00 +12°C° 0 mm 0 m/S 615 mmHg 94%
    04:00 +12°C° 0 mm 1 m/S 615 mmHg 93%
    05:00 +12°C° 0 mm 1 m/S 615 mmHg 93%
    06:00 +13°C° 0 mm 0 m/S 616 mmHg 87%
    07:00 +15°C° 0 mm 0 m/S 617 mmHg 81%
    08:00 +16°C° 0 mm 0 m/S 618 mmHg 76%
    09:00 +20°C° 0 mm 1 m/S 618 mmHg 71%
    10:00 +21°C° 0 mm 1 m/S 618 mmHg 67%
    11:00 +23°C° 0 mm 1 m/S 618 mmHg 62%
    12:00 +21°C° 0 mm 2 m/S 618 mmHg 66%
    13:00 +21°C° 0 mm 2 m/S 617 mmHg 70%
    14:00 +21°C° 0 mm 2 m/S 616 mmHg 74%
    15:00 +19°C° 0.1 mm 2 m/S 616 mmHg 81%
    16:00 +19°C° 0.1 mm 1 m/S 616 mmHg 89%
    17:00 +16°C° 0.1 mm 1 m/S 615 mmHg 96%
    18:00 +16°C° 0 mm 1 m/S 616 mmHg 96%
    19:00 +14°C° 0 mm 0 m/S 616 mmHg 95%
    20:00 +14°C° 0 mm 0 m/S 616 mmHg 95%
    21:00 +14°C° 0 mm 0 m/S 616 mmHg 93%
    22:00 +14°C° 0 mm 0 m/S 616 mmHg 91%
    23:00 +14°C° 0 mm 0 m/S 616 mmHg 89%
    Mehr zeigen